Weather History for Hayward, WI

Change the Weather History Date:

Sunday, March 30, 2014

  Actual Average Record
Temperature  
Mean Temperature 42 °F -  
Max Temperature 51 °F 42 °F 66 °F (1999)
Min Temperature 33 °F 23 °F 8 °F (2011)
Degree Days  
Heating Degree Days 24    
Moisture  
Dew Point 28 °F    
Average Humidity 61    
Maximum Humidity 73    
Minimum Humidity 46    
Precipitation  
Precipitation 0.00 in - - ()
Sea Level Pressure  
Sea Level Pressure 29.96 in    
Wind  
Wind Speed 9 mph (South)    
Max Wind Speed 20 mph    
Max Gust Speed 28 mph    
Visibility 10 miles    
Events      
Averages and records for this station are not official NWS values.
T = Trace of Precipitation, MM = Missing Value Source: NWS Daily Summary

Daily Weather History Graph

Daily Weather History Graph

Search for Another Location

Airport:

Trip Planner

Search our weather history database for the weather conditions in past years. The results will help you decide how hot, cold, wet, or windy it might be!

Date:

Astronomy

Mar. 30, 2014 Rise Set
Actual Time 6:49 AM CDT 7:31 PM CDT
Civil Twilight 6:19 AM CDT 8:01 PM CDT
Nautical Twilight 5:43 AM CDT 8:37 PM CDT
Astronomical Twilight 5:06 AM CDT 9:15 PM CDT
Moon 6:35 AM CDT (3/30) 7:46 PM CDT (3/30)
Length of Visible Light 13h 42m
Length of Day
12h 42m
Waning Crescent, 0% of the Moon is Illuminated
Mar 30
Waning Crescent
Mar 30
New
Apr 7
First Quarter
Apr 15
Full
Apr 22
Last Quarter

Hourly Weather History & Observations

Time (CDT) Temp. Windchill Dew Point Humidity Pressure Visibility Wind Dir Wind Speed Gust Speed Precip Events Conditions
12:53 AM 33.1 °F 25.5 °F 23.0 °F 66% 30.13 in 10.0 mi South 9.2 mph - N/A   Clear
1:53 AM 33.1 °F 26.1 °F 23.0 °F 66% 30.11 in 10.0 mi South 8.1 mph - N/A   Clear
2:53 AM 33.1 °F 24.9 °F 23.0 °F 66% 30.07 in 10.0 mi South 10.4 mph - N/A   Clear
3:53 AM 34.0 °F 26.0 °F 25.0 °F 70% 30.04 in 10.0 mi South 10.4 mph - N/A   Clear
4:53 AM 33.1 °F 26.1 °F 25.0 °F 72% 30.02 in 10.0 mi South 8.1 mph - N/A   Clear
5:53 AM 33.1 °F 24.9 °F 25.0 °F 72% 30.00 in 10.0 mi SSE 10.4 mph - N/A   Clear
6:53 AM 33.1 °F 23.9 °F 25.0 °F 72% 29.97 in 10.0 mi SSE 12.7 mph - N/A   Clear
7:53 AM 34.0 °F 26.0 °F 26.1 °F 73% 29.97 in 10.0 mi South 10.4 mph - N/A   Clear
8:53 AM 37.9 °F 30.0 °F 28.0 °F 68% 29.96 in 10.0 mi South 12.7 mph - N/A   Clear
9:53 AM 43.0 °F 36.8 °F 28.9 °F 58% 29.94 in 10.0 mi SSW 11.5 mph 27.6 mph N/A   Clear
10:53 AM 44.1 °F 35.9 °F 28.9 °F 55% 29.94 in 10.0 mi South 19.6 mph 27.6 mph N/A   Clear
11:53 AM 45.0 °F 40.6 °F 28.9 °F 53% 29.94 in 10.0 mi SSW 8.1 mph 19.6 mph N/A   Clear
12:53 PM 46.0 °F 41.0 °F 28.9 °F 51% 29.94 in 10.0 mi South 10.4 mph - N/A   Clear
1:53 PM 46.9 °F - 30.0 °F 52% 29.94 in 10.0 mi South 10.4 mph - N/A   Clear
2:53 PM 48.9 °F - 30.0 °F 48% 29.92 in 9.0 mi SW 10.4 mph - N/A   Clear
3:53 PM 48.9 °F - 30.0 °F 48% 29.92 in 9.0 mi SSW 9.2 mph - N/A   Clear
4:53 PM 50.0 °F - 30.0 °F 46% 29.91 in 9.0 mi SSW 9.2 mph - N/A   Clear
5:53 PM 50.0 °F - 30.9 °F 48% 29.91 in 9.0 mi SSW 6.9 mph - N/A   Clear
6:53 PM 45.0 °F - 30.9 °F 58% 29.93 in 9.0 mi Calm Calm - N/A   Clear
7:53 PM 39.0 °F 36.8 °F 30.0 °F 70% 29.92 in 10.0 mi NNE 3.5 mph - N/A   Clear
8:53 PM 37.9 °F 35.5 °F 30.0 °F 73% 29.93 in 10.0 mi ENE 3.5 mph - N/A   Clear
9:53 PM 42.1 °F 39.2 °F 30.9 °F 65% 29.93 in 10.0 mi ENE 4.6 mph - N/A   Clear
10:53 PM 42.1 °F 40.2 °F 30.9 °F 65% 29.92 in 10.0 mi ENE 3.5 mph - N/A   Scattered Clouds
11:53 PM 44.1 °F 40.8 °F 30.9 °F 60% 29.90 in 10.0 mi ESE 5.8 mph - N/A   Clear